Regional Weather Roundup
Issued by NWS Lake Charles, LA

Current Version | Previous Version | Text Only | Print | Product List | Glossary On
Versions: 1 2 3 4 5 6 7 8 9 10 11 12 13 14 15 16 17 18 19 20 21 22 23 24 25 26 27 28 29 30 31 32 33 34 35 36 37 38 39 40 41 42 43 44 45 46 47 48 49 50
862
ASUS44 KLCH 090710
RWRLCH
REGIONAL WEATHER ROUNDUP
NATIONAL WEATHER SERVICE LAKE CHARLES LA
100 AM CST TUE FEB 09 2016

Note: "fair" indicates few or no clouds below 12,000 feet with no
significant weather and/or obstructions to visibility.


ACROSS SOUTHEAST TEXAS

CITY           SKY/WX    TMP DP  RH WIND       PRES   REMARKS
BEAUMONT       PTCLDY    44  20  38 W10       30.26F
BEAUMONT CITY  FAIR      44  17  33 W10       30.27F
ORANGE         MOSUNNY   45  10  24 W6        30.26F
JASPER         CLEAR     40  15  34 W5        30.26S
$$

ACROSS CENTRAL LOUISIANA

CITY           SKY/WX    TMP DP  RH WIND       PRES   REMARKS
LEESVILLE      CLEAR     40  15  36 W7        30.19S
FULLERTON      FAIR      36  22  56 CALM      30.16S
ALEXANDRIA INT CLEAR     38  22  52 W8        30.15S
ESLER FIELD    PTCLDY    41  16  36 W5        30.15F
DERIDDER         N/A     38  17  42 W7        30.23S
OAKDALE          N/A     40  17  38 SW3       30.20R
OPELOUSAS      FAIR      41  20  43 W8        30.18S
$$

ACROSS SOUTHWEST AND SOUTH CENTRAL LOUISIANA

CITY           SKY/WX    TMP DP  RH WIND       PRES   REMARKS
SULPHUR        SUNNY     40  22  49 MISG      30.24F
LAKE CHARLES   CLEAR     44  19  36 W8        30.22F
CHENNAULT INT  CLEAR     45  17  33 W12       30.22F
CAMERON PHI      N/A     46  27  46 NW10G17   30.27S
DEQUINCY       FAIR      42  16  34 W6        30.23F
JENNINGS       FAIR      39  21  48 W9        30.21S
LAFAYETTE      CLEAR     44  21  40 W10       30.19S
NEW IBERIA     PTCLDY    41  25  53 W7        30.19S
ABBEVILLE      FAIR      42  24  49 W9        30.20S
PATTERSON      CLEAR     45  18  33 W8        30.19S
SALT POINT       N/A     50  33  52 W10G24    30.18S
$$

SELECTED SITES ACROSS THE REGION

CITY           SKY/WX    TMP DP  RH WIND       PRES   REMARKS
HOUSTON BUSH   PTCLDY    44  17  33 W6        30.30S
HOUSTON HOBBY  CLOUDY    45  19  35 W7        30.29F
GALVESTON      CLOUDY    49  29  46 NW10      30.30F
COLLEGE STAT   CLEAR     39  19  44 NW5       30.32S
CONROE         CLEAR     34  25  69 CALM      30.29F
HUNTSVILLE     CLEAR     44  13  28 W6        30.28S
LUFKIN         CLEAR     40  13  33 W6        30.25R
SHREVEPORT     CLEAR     42  14  32 NW13      30.17R
MONROE         CLEAR     41  18  39 W9        30.12S
NATCHEZ MS     PTCLDY    41  14  33 W9        30.10S
BATON ROUGE    CLEAR     43  17  35 W12       30.14F
N.O. INTL ARPT CLEAR     45  18  34 W14       30.14S
SLIDELL        CLEAR     45  17  32 VRB5      30.10F
$$

MARINE REPORTS

STATION/POSITION TIME  SKY/WX   TEMP    WIND        PRES    VSBY
                                AIR SEA DIR/SP/G
                 (UTC)          (F)     (DEG/KT/KT) (MB)    (MI)
BUOY 30 S HIGH I 0650            56 57  310/ 17/ 21 1024.9F
WVE H/P(F/S)=  2/ 3

SEA RIM ST PARK  0600            41     270/  8/  9 1025.6R
PORT ARTHUR      0600               55  270/  8/ 12 1024.9R
SABINE PASS N    0600            44 56  270/  4/  8 1026.1R
TEXAS POINT      NOT AVBL
CALCASIEU PASS   0600            45 53  290/ 10/ 12 1023.2R
LK CHARLES BEACH 0600            49 53              1023.8F
MARSH ISLAND     NOT AVBL
FRESH WATER LOCK 0600            43 55  260/  8/ 11 1023.2F
AMERADA PASS     0600            50 49  280/ 14/ 16 1022.1F
$$




USA.gov is the U.S. government's official web portal to all federal, state and local government web resources and services.